You are listening to:
ZNY Bermuda Sector - Hamilton, Bermuda

TXKF 040722Z 24010KT 9999 FEW008 SCT250 20/18 Q1019

If stream doesn't start automatically press the play button
If stream stops then reload player then press play